Location: Mentone
(34.5413°N, 85.5351°W)
Time: 19:12:01
(UTC-05:00)

ADEOS Rocket - Visible Passes

Search period start: 28 May 2015 00:00
Search period end: 07 June 2015 00:00
Orbit: 859 x 1308 km, 98.7° (Epoch: 28 May)

Date Brightness Start Highest point End Pass type
(mag) Time Alt. Az. Time Alt. Az. Time Alt. Az.
29 May 5.4 21:03:45 10° SW 21:06:53 15° W 21:09:40 10° WNW visible
30 May 4.0 20:12:13 10° S 20:17:28 43° W 20:22:40 10° NNW visible
31 May 5.5 21:12:39 10° WSW 21:14:43 12° W 21:16:22 10° WNW visible
01 Jun 4.3 20:20:10 10° SSW 20:25:12 36° W 20:30:12 10° NNW visible
03 Jun 4.7 20:28:10 10° SSW 20:32:57 30° W 20:37:42 10° NW visible
05 Jun 4.9 20:36:15 10° SSW 20:40:43 25° W 20:45:08 10° NW visible
